GFSSE_prec_radar_105.txt.gz
Reflectivity
-20 -20 -20 -20 -20 -20 -20 -20 -20 -20 -20 -20 -20 -20 -20 -20 -20 -20 -20 -20 -20 -20 -20 -20 -20 -20 -16 10 -1 -20 -20 -9 5 -20 -2 14 13 -0 3 -2 -11 -20 -20
-20 -20 -20 -20 -20 -20 -20 -20 -20 -20 -20 -20 -3 -19 -19 -20 -20 -20 -20 -20 -20 -20 -20 -20 -20 -19 22 10 -20 -20 -20 1 6 -20 7 15 14 13 -3 -20 -20 -20 -20
-20 -20 -20 -20 -20 -20 -20 -20 -20 -20 -20 -20 -19 -2 -20 -20 -20 -20 -13 -13 -20 -19 -7 -20 -1 13 15 -2 -20 -15 6 6 -20 -20 8 8 -9 -1 -20 -20 11 -15 -18
-20 -20 -20 -20 -20 -20 -20 -20 -20 -13 -19 -20 -20 -4 -20 -20 -20 -20 -20 0 -17 9 10 6 3 2 12 -6 -20 -20 -20 -20 -20 -15 -19 -1 -7 -11 15 -20 -9 -7 10
-20 -20 -20 -20 -20 -20 -20 -20 -20 -20 -5 -2 -20 -20 -20 -20 -20 -14 -20 3 5 3 2 13 13 11 -16 -20 -20 -20 -20 -20 -4 -2 -17 0 -12 -1 6 -5 9 8 -3
-20 -20 -20 -20 -20 -20 -20 -20 -20 -20 -20 4 11 19 -14 3 10 -20 12 9 9 -19 12 18 21 5 -20 -20 -20 -10 -20 -20 3 -20 -10 8 -15 -17 8 -0 15 9 11
-20 -20 -20 -20 -20 -20 -20 -14 4 -16 -20 -9 24 23 37 7 12 23 4 9 -20 9 17 17 9 8 -20 -20 -16 -19 -20 1 -2 -20 -3 -20 -20 -17 -11 8 11 -1 10
-20 -20 -20 -20 -20 -20 -20 -20 -20 7 25 5 -20 19 30 32 26 34 24 -19 4 -20 28 -11 16 -20 -20 -20 -20 -20 -20 -20 0 8 -18 -18 3 0 13 10 11 15 -9
-20 -20 -20 -20 -20 -20 -20 -20 -20 -20 -20 23 4 18 34 25 39 23 21 15 22 -20 17 15 11 -20 -20 -20 -20 -20 -20 -20 -20 -12 -4 -2 4 9 13 2 10 14 13
-20 -20 -20 -20 -20 -20 -2 3 -3 17 39 19 28 26 5 -5 16 35 25 32 17 -19 14 -20 -16 -20 -20 -20 -20 -20 -11 -7 -15 -20 -20 -19 8 11 18 9 -8 6 -20
-20 -20 -20 -20 -20 -20 -20 -20 -20 -8 -16 29 32 32 21 8 9 -20 -14 18 23 7 10 -20 -20 -20 -20 -20 -20 -20 -20 -3 -19 -18 -20 7 17 15 8 -10 -11 11 10
-20 -20 -20 -20 -20 -20 -20 -20 -20 -20 -9 22 31 31 32 29 1 -20 -20 -3 26 6 -20 -20 -20 -20 -20 -20 -20 -20 -13 19 5 -17 -20 7 2 3 1 -4 -3 -1 -7
-20 -20 -20 -20 -20 -20 -20 -20 -20 -18 -20 -20 -20 27 28 -17 -20 -20 -9 24 30 -20 -20 -20 -20 -20 -20 -20 -20 -20 18 -2 -20 -20 -20 -1 2 -5 -2 -1 -2 -20 -20
-20 -20 -20 -20 -20 -20 -20 -20 -20 -11 -7 2 -20 23 -16 -3 -5 -19 -17 1 19 -14 -20 -20 -20 -20 -20 -20 -20 1 -14 -20 -20 -20 -13 4 6 2 1 -1 -20 -20 -20
-20 -20 -20 -20 -20 -20 -20 -13 -20 -6 11 10 -8 -20 -17 -8 -20 -20 -20 -1 -20 -19 -20 -20 -20 -20 -20 -20 1 3 -20 -20 -20 -20 -20 -20 -3 2 -0 -2 -20 -20 -20
-20 -20 -20 -20 -20 -20 -20 -20 -20 -20 -4 -1 22 8 6 14 -20 -20 -20 -20 6 15 -20 -20 -20 -20 -20 -0 -15 -20 -20 -20 -20 -20 -20 -20 -20 -20 -4 -1 -20 -20 -20
-20 -20 -20 -20 -20 -20 -20 -20 -20 -20 -20 -20 14 18 17 -17 -20 -20 -20 -20 13 -20 -20 -20 -20 -19 -19 -20 -20 -20 -20 -20 -20 -20 -20 -20 -20 -20 -20 -20 -20 -20 -20
-20 -20 -20 -20 -20 -20 -20 -20 -11 -19 1 -20 14 18 24 22 -4 9 -13 -6 -14 -20 -20 -20 -20 -20 -20 -20 -20 -20 -20 -20 -20 -20 -20 -20 -20 -20 -20 -20 -20 -20 -20
-20 -20 -20 -20 -20 -20 -20 -20 -13 -20 -20 -20 19 20 29 31 22 15 12 -15 -20 -20 -20 -20 -20 -20 -20 -20 -20 -20 -20 -20 -20 -20 -20 -20 -20 -20 -20 -20 -20 -20 -20
-20 -20 -20 -20 -20 -20 -20 -20 -20 -7 12 -10 29 28 16 25 23 22 -10 -20 -12 -20 -20 -20 -20 -20 -20 -20 -20 -20 -20 -20 -20 -20 -20 -20 -20 -15 -20 -20 -20 -20 -20
-20 -20 -20 -20 -20 -20 -20 -20 -20 17 -4 19 7 28 27 18 19 -15 -20 -20 -20 -20 -20 -20 -20 -20 -20 -20 -20 -20 -20 -20 -20 -20 -20 -20 -20 -20 -20 -20 -20 -20 -20
-20 -20 -20 -20 -20 -20 -20 -20 -20 -20 8 -19 -4 16 23 24 16 -5 -20 -20 -20 -20 -20 -20 -20 -20 -19 -15 -20 -7 -18 -20 -7 -8 -18 -4 -20 -20 -20 -20 -20 -20 -20
-20 -20 -20 -20 -20 -20 -20 -20 -20 -20 -20 -19 -19 19 30 33 25 22 20 -18 -20 -20 -20 -20 -20 -20 -20 -20 -20 -20 -20 -20 -20 -20 -2 -20 -20 -20 -20 -20 -20 -20 -20
-20 -20 -20 -20 -20 -20 -20 -20 -20 -20 8 -10 -20 26 34 30 32 14 21 7 3 -20 -20 -20 -19 -20 -20 -20 -20 -20 -20 -20 -20 -15 -20 -20 -20 -20 -20 -20 -20 -20 -20
-20 -20 -20 -20 -20 -20 -20 -20 -20 7 8 -20 7 30 36 32 33 31 19 25 -5 -20 -16 13 -19 -20 -10 -4 -20 -20 -20 5 7 -9 -20 -13 -20 -17 -16 -20 -20 -20 -20
-20 -20 -20 -20 -20 -20 -20 -20 -20 -20 -2 14 8 22 34 34 33 31 34 32 29 12 17 10 -7 -0 -0 11 -5 -20 -17 12 5 -20 -19 7 -20 7 -14 -20 -20 -20 -20

GFSSE_prec_radar_111.txt.gz
Reflectivity
-20 -20 -20 -20 -2 -20 -20 -20 -20 -20 -20 -20 -20 -20 -20 -20 -9 -5 5 -20 7 8 4 -18 -20 -18 -2 -3 -20 -13 -20 -20 -20 -20 19 20 6 1 -15 -20 -18 -14 -20
-20 -20 -20 -20 -1 -11 -20 -20 -20 -20 -20 -20 -20 -20 -20 -3 -15 3 -18 -20 4 9 1 -7 -20 -20 -20 -20 -20 -20 -20 -20 -20 -20 -20 15 11 2 -20 -20 -18 -8 -20
-20 -20 -20 -20 -4 8 -20 -20 -20 -20 -20 -20 -12 -6 -1 -11 -20 5 6 3 1 6 2 -20 -20 -7 -1 -20 -20 -20 -20 -20 -20 -20 3 5 9 2 -20 -20 -20 -20 -20
-20 -20 -20 -20 -2 9 -20 -20 -20 -12 -14 -8 -9 -13 -20 -20 -2 -20 -4 4 4 6 6 -7 -16 3 -8 -20 -20 -20 -20 -20 -20 -20 -16 -9 -1 1 -20 -20 -20 -20 -15
-20 -20 -20 -20 -2 14 -20 -20 -7 5 6 -20 -20 -20 6 -9 11 -20 -3 -20 -10 4 11 -20 -19 -15 -20 -20 -20 -20 -20 -20 -20 -20 1 6 1 -1 7 9 -16 4 -8
-20 -20 -20 -20 -20 11 -20 -20 -2 -1 6 -20 -20 -20 40 33 21 16 -12 -20 -20 -20 -3 4 -5 1 -20 -20 -20 -20 -20 -20 -20 -2 10 0 12 1 -20 -11 -20 7 -10
-20 -20 -20 -20 -20 4 4 -18 -20 0 -1 -3 -15 4 -17 28 38 25 -13 9 14 -20 -5 -15 -20 -20 -20 -20 -20 -20 -20 -20 -20 1 2 14 -3 -7 -20 -20 -20 -20 -20
-20 -20 -20 -20 -20 -2 1 11 -20 -20 -20 -19 -18 -9 -20 2 17 -20 -20 -20 -20 -20 -20 -20 -20 -20 -20 -20 -20 -20 -20 -20 -20 -20 -15 -5 8 -20 -18 -20 -20 -20 -20
-20 -20 -20 -20 -20 -20 -16 10 9 -12 -20 -20 -20 -20 -20 -20 -20 -20 -20 -20 -15 18 6 8 -18 -20 -20 -20 -20 -20 -20 -15 -20 10 -20 6 -20 -20 5 -20 -20 -20 -2
-20 -20 -20 -20 -20 1 9 -20 -1 -18 -20 -20 -20 -20 -12 -11 3 -20 -7 18 -8 17 6 18 25 -20 -20 -19 -20 -20 -20 -20 -20 -20 -20 -20 -20 -13 -20 -20 -20 4 7
-20 -20 -20 -20 -20 -20 -20 2 5 -10 -20 -20 -20 14 -18 -20 -20 -20 13 17 -20 -11 4 -18 -20 -20 -20 1 -20 -20 -20 -20 -20 -20 -16 -13 -20 -17 9 4 -20 -3 2
-20 -20 -20 -20 -20 -20 -20 -16 7 -4 -20 -20 -20 -20 -20 -20 -20 -20 -20 -6 -20 -13 14 30 6 -20 -12 -4 -8 -20 -20 -20 -20 -19 1 5 -8 13 4 -2 -16 10 11
-20 -20 -20 -20 -20 -20 -3 -20 -4 9 10 2 -20 -20 -20 -20 -20 -20 -20 -10 29 -7 -20 -17 -20 -20 -20 -20 -20 -20 -20 -20 -20 -20 -19 8 11 2 -10 -20 -0 14 6
-20 -20 -20 -20 -20 -20 -20 -20 -20 -4 7 17 9 -16 -17 -20 -20 -20 -20 1 -2 29 26 15 -11 -20 -20 -20 -20 -20 -20 -20 -20 -20 -20 -4 -17 -9 3 10 15 8 3
-20 -20 -20 -20 -20 -20 -20 -20 -20 0 1 2 16 14 1 -8 -1 2 -20 23 -5 -20 -6 22 -4 -20 -20 -20 -20 -20 -20 -20 -20 -20 -20 12 2 2 -7 4 17 14 12
-20 -20 -20 -20 -20 -20 -20 -20 -20 -19 10 4 -8 8 11 10 1 -20 -20 5 -15 -1 15 13 -17 -20 -20 -20 -20 -20 -20 -20 -20 -20 -20 0 -19 2 9 14 5 14 15
-20 -20 -20 -20 -20 -20 -20 -12 -20 -20 -5 -19 12 6 -2 4 13 -4 -15 -7 2 -20 26 13 -19 -20 -20 -20 -20 -20 -20 -20 -20 -20 -20 -8 -20 3 10 13 6 13 -6
-20 -20 -20 -20 -20 -20 -20 -16 -20 -20 4 -15 13 15 -11 -7 -12 -20 -20 1 4 7 3 16 -18 -20 -20 -20 -20 -20 -20 -20 -20 -20 -11 2 5 -10 -11 -20 -9 -20 -20
-20 -20 -20 -20 -20 -20 -20 -20 -20 -10 -12 4 7 8 10 5 26 14 -1 3 -8 1 -14 -3 -20 -20 -20 -20 -20 -20 -20 -20 -20 -20 -20 -20 -20 -20 -20 -20 -20 -20 -20
-20 -20 -20 -20 -20 -20 -20 -20 0 7 -15 5 -0 3 3 7 19 29 14 4 2 -20 -1 -15 -3 -20 -20 -20 -20 -20 -20 -20 -20 -20 -20 -20 -20 -20 -20 -20 -20 -20 -20
-20 -20 -20 -20 -20 -20 -20 -20 -6 -3 -20 -20 -14 -8 -20 -15 33 28 38 29 -2 10 -20 -20 -9 8 -20 -20 -20 -20 -20 -20 -20 -20 -20 -20 -20 -20 -20 -20 -20 -20 -20
-20 -20 -20 -20 -20 -20 -20 -20 -5 13 -8 -17 -1 -3 0 -20 3 31 37 33 30 13 -4 12 -12 -20 -20 -20 -20 -20 -20 -20 -20 -20 -20 -20 -20 -20 -20 -20 -20 -20 -20
-20 -20 -20 -20 -20 -20 -20 -20 -20 -20 -10 0 -4 7 -11 -15 -18 25 27 26 27 26 11 -12 -20 -20 -20 -20 -20 -20 -20 -11 -16 -20 -20 -20 -20 -20 -20 -20 -20 -20 -20
-20 -6 -20 -20 -20 -20 -20 -20 -20 -8 -0 -12 -14 -6 -19 -20 18 30 27 24 33 24 7 13 -13 -20 -20 -20 -20 -20 -20 -19 -20 -20 -20 -20 -20 -20 -20 -19 -20 -20 -20
-20 1 -20 -20 -20 -20 -20 -20 -20 10 -20 -19 -14 -9 -19 -20 11 30 31 34 24 13 17 2 -7 -20 -20 -20 -20 -20 -20 -20 -20 -20 -20 -20 -20 -20 -20 -20 -20 -20 -17
-20 -19 -20 -20 -20 -20 -19 -20 -20 -20 -20 -9 -16 -10 9 -5 -8 27 30 28 1 20 25 4 15 -20 -20 -20 -20 -20 -20 -20 -20 -20 -20 -20 -20 -20 -20 -20 -20 -19 -8

GFSSE_prec_radar_114.txt.gz
Reflectivity
-20 -20 -20 -20 -20 -20 -20 -20 -20 -20 -20 -20 -20 -20 -20 -20 -20 -20 -20 -8 -20 -20 9 -1 -1 -5 -20 -20 -20 -2 3 -20 -20 -20 -10 7 9 2 -2 -20 -20 -5 -14
-20 -20 -20 -20 -20 -20 -20 -20 -20 -20 -20 -20 -20 -20 -9 -20 -7 -20 4 -4 12 -20 -20 -20 -20 -20 -3 -7 -20 -20 -20 -20 -20 -20 -2 -5 -17 -16 -17 -3 10 -4 -20
-20 -20 -20 -20 -20 -10 -20 -20 -20 -20 -20 -17 -20 -20 -20 -5 3 -20 -2 -5 14 -15 7 -19 -20 -18 -9 -14 -20 -20 -20 -20 -20 -20 -20 -4 9 -7 -20 -20 -20 -20 -20
-20 -20 -20 -20 -20 -11 -20 -20 -20 -19 -12 2 -20 -5 -20 0 6 21 3 -14 9 -20 -1 2 -13 -8 -18 -20 -20 -20 -20 -20 -20 -20 -7 -17 2 2 -20 -20 -20 -16 -16
-20 -20 -20 -20 -20 -20 -20 -20 -20 5 2 3 -12 -19 -20 -3 5 5 43 -5 -20 -20 -20 -20 -15 -14 -20 -20 -20 -20 -20 -20 -20 -20 -14 -3 -12 10 -3 -20 -20 -7 14
-20 -20 -20 -20 -20 -20 -20 -20 -20 3 5 -13 -19 -20 -20 11 22 20 39 17 -11 -20 -20 15 4 -20 -20 -20 -20 -20 -20 -20 -20 -13 7 -1 -20 1 -12 -19 -20 13 13
-20 -20 -20 -20 -20 -20 -20 -20 -20 -11 -5 -20 26 -13 -20 35 45 45 27 43 9 -18 -20 -20 -20 -20 3 -20 -20 -20 -20 -20 -15 -17 2 8 11 -20 -20 -20 -20 -20 -20
-20 -20 -20 -20 -20 -20 -20 -20 -20 -20 -20 -20 -20 -20 -20 26 -20 6 10 -5 -5 -9 -20 -20 -20 -20 -20 -20 -20 -20 -20 -20 -10 -16 3 15 -10 -20 -20 -20 -20 -20 -20
-20 -20 -20 -20 -20 -20 -20 -20 -20 -20 -20 -20 -20 -20 -20 -20 -20 -20 -20 -20 -19 -20 -20 -20 -20 -20 19 -20 -20 -20 -20 -20 -19 -7 3 10 -20 -20 -20 -20 -20 -19 -20
-20 -20 -20 -20 -20 -1 -6 -8 -20 -20 -20 -20 -20 -20 -10 -19 -16 -0 -13 -11 -20 -20 -20 -20 -12 -19 0 -20 -20 -20 -20 -20 -1 -19 -18 -18 4 -20 -20 -20 -20 -20 -20
-20 -20 -20 -20 -20 -14 -10 -5 -13 -11 -20 -20 -20 -20 -19 -3 -14 -20 -20 -20 -8 -20 -12 18 21 -16 29 -20 -4 -20 -20 20 -7 -16 4 -20 -8 -20 -20 -20 -20 3 8
-20 -20 -20 -20 -20 -15 -20 -14 7 11 12 -4 -14 -19 -20 13 -20 -20 -20 -20 -2 1 -18 7 -2 -16 14 -13 -13 2 9 17 -20 -17 -20 -20 -20 -17 -20 -20 1 2 6
-20 -20 -20 -20 -20 -20 -19 -14 5 12 -0 6 11 15 20 22 -9 -20 -20 -20 28 -11 -8 1 -11 -14 25 19 16 -19 -5 -20 -20 -20 -18 -1 9 -20 15 3 5 12 -11
-20 -20 -20 -20 -20 -2 -20 -14 7 9 6 -1 -19 15 23 23 20 -20 -14 -20 -20 27 20 6 -2 24 11 12 -20 -20 -20 -20 -20 -20 -20 4 7 11 12 2 7 7 10
-20 -20 -20 -20 -20 -19 -20 -20 -4 7 1 3 -5 27 -15 22 20 -0 -20 -16 -20 4 34 26 27 26 13 -11 -20 -20 -20 -20 -20 -20 -20 -20 -20 11 7 10 12 14 11
-20 -20 -20 -20 -20 -13 -20 -12 -17 7 7 -7 -7 -2 -3 2 -20 21 23 4 -14 -14 30 29 22 17 -16 -14 -18 -20 -20 -20 -20 -20 -20 -20 -20 4 7 11 9 9 3
-20 -20 -20 -20 -20 -20 -20 -20 -12 0 9 6 -7 7 4 6 -7 19 21 22 4 26 -2 0 18 28 -20 -10 -20 8 -20 -20 -20 -20 -20 -20 -20 -2 10 13 10 10 6
-20 -20 -20 -20 -20 -20 -20 -20 -20 -0 1 11 8 -1 4 5 -20 25 24 22 23 7 13 9 16 19 -20 -20 -14 13 -20 -20 -20 -20 -20 -20 -20 -20 -10 5 2 10 0
-20 -20 -20 -20 -20 -20 -20 -19 -9 -1 5 2 3 9 26 12 -0 3 16 24 26 4 21 -20 3 15 -9 -20 -19 -2 -20 -20 -20 -20 -20 -20 -20 -20 -20 -20 -20 -20 -20
-20 -20 -20 -20 -20 2 -6 -13 -11 3 4 2 8 4 5 -7 9 8 -10 26 7 6 25 -10 15 -13 -20 -20 -20 11 -20 -20 -20 -20 -20 -20 -20 -20 -20 -20 -20 -20 -20
-20 -20 -20 -20 -20 -20 -19 -20 3 0 -4 4 12 4 -13 -4 -16 3 -1 31 29 17 23 12 28 23 8 5 4 4 10 6 4 -20 -20 -20 -20 -20 -20 -20 -20 -20 -20
-20 -20 -20 -20 -20 -20 -20 -20 -20 -20 -16 -16 -12 7 5 -9 -10 14 -1 21 33 16 25 11 19 11 6 7 8 -1 10 12 8 -4 -20 -20 -20 -20 -20 -20 -20 -20 -20
-20 -20 -20 -20 -20 3 -20 -18 -20 -3 8 8 11 16 1 -8 -9 -11 13 26 25 36 24 0 -3 14 4 7 -7 -20 -16 -20 -7 -20 -20 -20 -20 -20 -20 -20 -20 -20 -20
-20 -20 -20 -20 -20 -20 -20 -20 -20 -20 -16 -7 5 11 4 17 13 -20 7 20 30 30 28 19 10 -18 -13 -19 -13 -20 -20 -20 5 -11 -20 -20 -20 -20 -20 -20 -20 -18 4
-20 -20 -19 -19 -14 -2 -20 -20 -20 -20 -20 -17 9 11 15 11 -13 -3 19 14 33 31 25 26 23 13 -5 -14 -20 -20 -20 -6 -13 -20 -20 -20 -20 -20 -20 -20 -20 -20 -20
-20 -20 -20 -15 -4 -20 -20 -20 -20 -20 -20 -6 7 12 15 10 3 -20 -19 28 35 22 36 25 27 23 16 -6 -20 -20 -20 -20 -20 -20 -20 -20 -20 -20 -20 -19 -20 -20 -20

GFSSE_prec_radar_117.txt.gz
Reflectivity
-20 -20 -20 -20 -20 -20 -20 -20 -20 -20 -20 -20 -20 -20 -20 -20 -20 -20 -20 -20 -20 -20 1 -20 -20 -20 -20 -20 -20 -20 -20 -20 -20 -20 -20 -10 -20 -20 -9 26 -20 3 -10
-20 -20 -20 -20 -20 -20 -20 -20 -20 -20 -20 -20 -20 -20 -20 -20 -20 -20 -20 -20 -20 -20 -20 -17 1 -20 -13 -20 -20 -20 -20 -20 -20 -20 -20 -20 -20 -20 -20 5 7 -6 -20
-20 -20 -20 -20 -20 -20 -20 -20 -20 -20 -20 -20 -20 -20 -20 6 -20 -20 -6 -14 -20 -20 -20 -20 -8 -4 -20 -20 -20 -20 -20 -20 -20 -20 7 -20 5 -20 -20 -20 -20 -20 -20
-20 -20 -20 -20 -20 -20 -20 -20 -20 -20 -2 -20 -20 -20 -20 -3 -20 -12 32 16 3 5 -20 -20 -20 -1 -20 -20 -20 -20 -20 -20 3 -20 -20 -20 7 -20 -20 -20 -14 -14 -20
-20 -20 -20 -20 -20 -20 -20 -20 -20 0 -1 1 -4 -20 -20 21 25 42 43 37 33 2 28 -20 -19 -15 -13 -20 -20 -20 -20 -20 -20 -15 -20 -19 7 3 -4 -19 -20 -12 1
-20 -20 -20 -20 -20 -20 -20 -20 -20 -2 4 7 -11 -20 -9 33 13 46 36 33 40 40 6 -5 3 -20 -20 -20 -20 -20 -20 -20 -20 -10 -8 4 -18 6 6 -19 -19 -20 -20
-20 -20 -20 -20 -20 -20 -20 -20 -20 -20 5 9 -20 -20 12 9 2 19 18 25 49 38 -2 -16 -20 -20 -20 -20 -20 -20 -20 -20 -20 -20 -20 25 8 19 -20 -20 -20 -20 -14
-20 -20 -20 -20 -20 -20 -20 -20 -20 -20 -14 -20 -20 7 -20 -20 -19 6 5 -20 17 25 14 -11 -20 -20 -20 -20 -20 -20 -20 0 0 9 1 16 -20 -1 -20 -20 -20 -20 -15
-20 -20 -20 -20 -20 -20 -20 -20 -20 -20 -20 -20 -20 -20 -20 3 -20 -20 -20 -20 -18 0 -7 -20 -20 -20 -20 -20 -16 -20 -20 -19 25 -20 9 -7 -20 -20 -20 -20 -20 -20 -20
-20 -20 -20 -20 -20 -20 -20 -20 -20 -20 -20 -20 -20 -20 -20 -20 -8 -20 -20 -20 -20 -20 -15 -20 -20 30 -20 -20 -20 -20 -20 18 -20 22 19 -20 -20 -20 -20 -20 -20 -20 -20
-20 -20 -20 -20 -20 -20 -20 -20 -20 -20 -20 -20 -20 -20 -20 -5 -20 -20 -2 -20 -8 -20 10 17 25 -20 8 -20 -20 -20 -20 10 -5 17 -3 -20 -20 -20 -20 -20 -20 -20 -20
-20 -20 -20 -20 -20 -20 -20 -20 -20 -19 -19 -20 -20 -19 -5 13 -13 -20 -12 -20 -13 -20 15 10 28 29 29 -13 -20 -20 23 -20 28 -20 -11 -20 -10 -20 -10 -20 -20 -20 -10
-20 -20 -20 -20 -20 -20 -20 -15 -20 -20 -20 -9 -15 2 -10 -6 15 25 -20 -20 1 -20 -5 -15 17 23 3 -20 -7 -19 13 -20 -20 -13 -20 -20 -20 -20 11 1 -20 7 1
-20 -20 -20 -20 -20 -20 -20 -20 -20 -7 -20 -20 6 11 -18 2 14 22 -20 -20 -18 -18 13 11 22 16 25 -14 -8 -9 -20 -20 -13 -20 -20 -20 4 -20 5 3 -1 4 2
-20 -20 -20 -20 -20 -16 -20 -20 -20 -20 -11 -9 2 11 -19 15 -10 -5 -5 12 -20 -1 25 12 19 24 18 -9 -19 -20 -20 -20 -20 -20 -20 -20 -20 -8 -20 -20 13 14 9
-20 -20 -20 -20 -20 -20 -20 -20 -20 -20 -9 5 1 2 4 -4 -5 8 23 13 10 -5 -0 17 18 -14 -19 -20 5 -20 -20 -20 -20 -20 -20 -20 6 -20 -20 13 14 13 8
-20 -20 -20 -20 -20 -20 -20 1 -15 -20 -20 8 -2 -1 19 26 26 22 22 19 23 22 -18 -2 35 33 12 9 -20 -20 -20 -20 -20 -20 -20 -20 -20 3 9 7 10 3 14
-20 -20 -20 -20 -20 -20 -20 -20 -20 -20 -20 1 0 -8 6 7 7 26 23 22 22 22 9 19 28 32 28 2 -20 -18 -16 -20 -20 -20 -20 -20 -20 -20 -13 -1 2 9 12
-20 -20 -20 -20 -20 -20 -20 -20 -20 -20 -20 -15 6 -0 -0 5 8 26 23 22 21 22 20 12 27 -13 16 28 -2 -12 -13 -20 -20 -20 -20 -20 -20 -20 -20 -20 -20 -10 -18
-20 -20 -20 -20 -20 -20 -20 -20 -20 -20 -20 -20 -1 -1 -6 8 12 17 20 20 23 19 16 -20 16 -10 19 13 -19 -5 -20 -19 -20 -20 -20 -20 -20 -20 -20 -20 -20 -20 -20
-20 -20 -20 -20 -20 -20 0 2 -13 -10 -18 -5 -0 1 -8 5 6 11 8 23 17 16 17 7 20 27 15 4 -20 -14 21 -20 -20 -20 -20 -20 -20 -20 -20 -20 -20 -20 -20
-20 -20 -20 -20 -20 -20 -20 -20 4 -20 -20 -9 -13 -12 5 -2 12 4 10 10 -20 22 23 28 27 22 19 14 -18 -15 14 3 -20 -20 -20 -20 -20 -20 -20 -20 -20 -20 -20
-20 -20 -20 -20 -20 -20 -20 5 -10 -19 -20 -20 -17 -3 7 6 8 -10 -17 6 10 17 25 28 26 17 13 19 21 -20 4 -5 8 -20 -20 -20 -20 -20 -20 -20 -20 -20 -20
-20 -20 -20 -20 -20 -20 -20 0 -20 -16 -2 -20 -20 -2 7 8 8 3 -20 -16 1 7 22 23 33 21 25 15 12 16 -20 -20 -20 4 -20 -20 -20 -20 -20 -20 -20 -20 -20
-20 -20 -20 -20 -20 -20 2 -19 -13 -20 -20 -20 -20 -20 4 5 8 9 -12 -5 11 14 27 32 30 31 24 14 -20 -20 -17 -20 -20 -20 -20 -20 -20 -20 -20 -20 -20 -20 -20
-20 -20 -20 -20 -20 -20 -20 -15 -15 -20 -20 -20 -20 -20 2 4 12 18 9 -13 -20 19 27 35 33 28 24 19 -4 -20 -20 3 6 -20 -20 -20 -20 -20 -20 -20 -20 -20 -20

GFSSE_prec_radar_123.txt.gz
Reflectivity
-20 -20 -20 -20 -20 -20 -20 -20 -20 -20 -20 -20 -20 -20 -20 -20 -20 -20 -20 -20 -20 -20 -20 -20 -20 -20 -20 5 -20 -20 -20 -10 2 -14 -4 -19 -11 -4 -20 -20 -20 -20 -20
-20 -20 -20 -20 -20 -20 -20 -20 -20 -20 -20 -20 -20 -20 -20 -20 -20 -20 -20 -20 -20 -20 15 12 -20 -20 -20 -20 -20 -20 -20 -20 -20 17 -17 -20 -20 -4 -20 -20 -20 -11 -13
-20 -20 -20 -20 -20 -20 -20 -20 -20 -20 -20 -20 -20 -20 -20 -20 -20 -20 -15 17 37 18 3 5 -20 -20 -20 -20 -20 -20 -20 -20 -20 -20 -20 -20 -20 -18 -20 -20 -20 -20 5
-20 -20 -20 -20 -20 -20 -20 -20 -20 -20 -20 -20 -20 -20 -20 -20 -20 -20 -20 -9 18 13 26 12 -11 -20 -20 -20 -20 -20 -20 -20 -20 -20 -20 -20 -20 -20 -20 -20 -20 -12 -20
-20 -20 -20 -20 -20 -20 -20 -20 -20 -20 -20 -19 -20 -20 -20 -20 -20 -20 -20 14 26 30 25 30 10 -2 -17 -4 -20 -20 -20 -20 -20 -20 -20 -20 -20 13 -2 -14 -20 -8 -20
-20 -20 -20 -20 -20 -20 -20 -20 -20 -20 -20 -17 2 -20 -20 -20 -20 -20 -20 -20 -20 30 35 15 19 5 -5 -5 -20 -20 -20 -20 -20 -20 -20 -20 -19 4 -20 -20 -20 4 12
-20 -20 -20 -20 -20 -20 -20 -20 -20 -20 -20 -20 -20 -20 -20 -20 -20 -20 -20 -20 -20 29 33 26 13 11 14 -18 -20 -20 -20 -20 -20 -20 -20 -20 -20 3 7 -20 -20 -9 -5
-20 -20 -20 -20 -20 -20 -20 -20 -20 -20 -20 -20 -20 -20 -20 -20 -20 -20 -20 -20 -20 -10 7 22 -5 19 5 -20 -20 -20 -20 -20 -20 -20 -20 -20 12 16 7 -6 -20 -20 -20
-20 -20 -20 -20 -20 -20 -20 -20 -20 -20 -20 -20 -20 -20 -20 -20 -20 -20 -20 -20 -20 -20 -20 3 11 7 7 29 -16 -12 -20 -20 -20 -20 -20 -20 27 21 17 -16 -20 -20 -20
-20 -20 -20 -20 -20 -20 -20 -20 -20 -20 -20 -20 -20 -20 -20 -20 -20 -20 -20 -20 -20 -20 -20 -20 27 26 -18 -20 28 -11 2 -20 -20 -20 3 -20 9 17 14 -16 -20 -20 -20
-20 -20 -20 -20 -20 -20 -20 -20 -20 -20 -20 -20 -20 -20 -20 -20 -20 -20 -20 -20 -20 -20 -20 -20 -1 -20 4 25 27 28 -20 -20 -20 -20 -20 -20 9 18 13 -9 -20 -20 -20
-20 -20 -20 -20 -20 -20 -20 -20 -20 -20 -20 -20 -20 -20 -20 -20 -20 -20 -20 -20 -20 -20 -20 -12 -19 -20 -2 19 27 18 -20 -20 -20 -20 -20 -20 2 17 16 -20 -20 -14 -20
-20 -20 -20 -20 -20 -20 -20 -20 -20 -20 -20 -20 -20 -20 -20 -20 -20 -20 -20 -20 -20 -20 -20 -20 -20 -20 -20 -20 25 -11 -20 -20 -20 8 -20 -20 -19 -17 7 8 -5 -4 -5
-20 -20 -20 -20 -20 -20 -20 -20 -20 -20 -20 -20 -20 -20 -20 -20 -20 -20 -20 -20 -20 -20 -20 -20 -20 -20 -20 -20 -20 21 14 -18 -20 2 -20 -20 -20 -20 -10 18 9 4 -20
-20 -20 -20 -20 -20 -20 -20 -20 -20 -20 -20 -20 -20 -20 -20 -20 -20 -20 -20 -20 -20 -20 -20 -20 -20 -20 -20 -20 -20 -1 2 -20 -20 -20 -20 -20 -20 -20 -8 17 -20 8 -7
-20 -20 -20 -20 -20 -20 -20 -20 -20 -20 -20 -20 -20 -20 -20 -20 -20 -20 -20 -20 -20 -20 -20 -20 -20 -20 -20 14 13 24 7 -7 -20 -20 -20 -20 -20 -20 -7 17 18 20 1
-20 -20 -20 -20 -20 -20 -20 -20 -20 -20 -20 -20 -20 -20 -20 -20 -20 -20 -20 -20 -20 -20 -20 -20 -20 1 -6 8 13 21 1 -12 -20 -20 -20 -20 -20 -20 -20 12 -1 2 -17
-20 -20 -20 -20 -20 -20 -20 -20 -20 -20 -20 -20 -20 -20 -20 -20 -20 -20 -20 -20 -20 -20 -17 -20 -20 -18 22 27 30 16 -20 -0 -20 -19 -20 -20 -20 -20 -20 -20 -3 1 -20
-20 -20 -20 -20 -20 -20 -20 -20 -20 -20 -20 -20 -20 -20 -20 -20 -20 -20 -20 -20 -20 -20 -14 -20 -20 -19 13 26 21 27 1 -15 -5 -8 -20 -20 -20 -20 -20 -1 -20 -20 -20
-20 -20 -20 -20 -20 -20 -20 -20 -20 -20 -20 -20 -20 -20 -20 -20 -20 -20 -20 -20 -20 -20 -12 -20 -20 -20 -20 1 20 35 24 -20 -20 -19 -20 -20 -20 -20 -20 -20 -20 -20 -20
-20 -20 -20 -20 -20 -20 -20 -20 -20 -20 -20 -20 -20 -20 -20 -5 -0 -20 -20 -20 -20 -20 -20 -20 -20 -20 -20 -20 11 33 23 11 -20 -13 -16 -20 -20 -20 -20 -20 -20 -20 -20
-20 -20 -20 -20 -20 -20 -20 -20 -20 -20 -20 -20 -17 5 -18 11 11 -20 -20 -20 -20 -20 -20 -20 -20 -20 -20 -19 -20 -4 26 15 -0 -20 12 -14 -20 -20 -20 -20 -20 -20 -20
-20 -20 -20 -20 -20 -20 -20 -20 -20 -20 -20 -20 -5 -17 7 6 14 6 -20 -20 -11 6 6 -20 -20 -20 -20 -20 -20 9 14 12 7 5 -0 12 -20 -20 -20 -20 -20 -20 -20
-20 -20 -20 -20 -20 -20 -20 -20 -20 -20 -20 -20 -20 -20 6 9 12 16 10 2 2 3 -8 -17 -20 -20 -20 -20 -20 20 4 -8 -19 -19 -20 15 -5 -20 -20 -20 -20 -20 -20
-20 -20 -20 -20 -20 -20 -20 -20 -20 -20 -20 -20 -20 -17 -14 6 7 13 12 -4 -13 8 -19 5 -10 -20 -20 2 -19 6 9 17 6 -1 -20 -20 -7 -16 -19 -20 -20 -20 -20
-20 -20 -20 -20 -20 -20 -20 -20 -20 -20 -20 -20 -16 9 -3 -4 1 17 3 15 12 1 -3 3 -20 -18 5 -20 20 -1 29 15 4 -20 6 4 -20 -20 -20 -20 -20 -20 -20